When you browse on this site, cookies collect data to enhance your experience and personalize the content and advertising you see.
Visit our Privacy Policy to learn more. By continuing to use the site, you agree to this use of cookies and data.
EN

Hourly Weather Sosnovo

Today, 9 August, Sunday

Time Temperature Precipitation Wind Pressure Humidity
00:00 +16°C° 0 mm 1 mps 745 mmHg 93%
01:00 +15°C° 0 mm 1 mps 745 mmHg 94%
02:00 +15°C° 0 mm 1 mps 745 mmHg 96%
03:00 +15°C° 0 mm 1 mps 745 mmHg 96%
04:00 +15°C° 0 mm 1 mps 745 mmHg 96%
05:00 +15°C° 0 mm 1 mps 745 mmHg 97%
06:00 +18°C° 0.1 mm 1 mps 745 mmHg 91%
07:00 +20°C° 0.1 mm 1 mps 745 mmHg 85%
08:00 +21°C° 0.1 mm 2 mps 745 mmHg 79%
09:00 +23°C° 0.6 mm 2 mps 745 mmHg 77%
10:00 +23°C° 0.6 mm 2 mps 744 mmHg 75%
11:00 +24°C° 0.6 mm 2 mps 744 mmHg 73%
12:00 +25°C° 0.5 mm 2 mps 744 mmHg 72%
13:00 +25°C° 0.5 mm 2 mps 744 mmHg 71%
14:00 +25°C° 0.5 mm 3 mps 743 mmHg 69%
15:00 +25°C° 0.3 mm 2 mps 743 mmHg 70%
16:00 +25°C° 0.3 mm 2 mps 743 mmHg 71%
17:00 +25°C° 0.3 mm 2 mps 743 mmHg 71%
18:00 +23°C° 0 mm 2 mps 743 mmHg 78%
19:00 +21°C° 0 mm 1 mps 743 mmHg 85%
20:00 +19°C° 0 mm 1 mps 743 mmHg 92%
21:00 +19°C° 0.2 mm 1 mps 743 mmHg 93%
22:00 +18°C° 0.2 mm 1 mps 743 mmHg 93%
23:00 +16°C° 0.2 mm 0 mps 743 mmHg 94%

Tomorrow, 10 August, Monday

Time Temperature Precipitation Wind Pressure Humidity
00:00 +18°C° 0 mm 1 mps 743 mmHg 95%
01:00 +16°C° 0 mm 1 mps 743 mmHg 95%
02:00 +16°C° 0 mm 1 mps 743 mmHg 96%
03:00 +16°C° 0 mm 1 mps 743 mmHg 96%
04:00 +16°C° 0 mm 1 mps 743 mmHg 95%
05:00 +16°C° 0 mm 1 mps 742 mmHg 95%
06:00 +19°C° 0 mm 1 mps 742 mmHg 88%
07:00 +20°C° 0 mm 1 mps 742 mmHg 81%
08:00 +22°C° 0 mm 1 mps 743 mmHg 74%
09:00 +24°C° 0 mm 2 mps 742 mmHg 67%
10:00 +25°C° 0 mm 2 mps 742 mmHg 61%
11:00 +26°C° 0 mm 2 mps 742 mmHg 54%
12:00 +26°C° 0.4 mm 3 mps 742 mmHg 57%
13:00 +26°C° 0.4 mm 3 mps 742 mmHg 60%
14:00 +26°C° 0.4 mm 3 mps 741 mmHg 64%
15:00 +25°C° 0.8 mm 3 mps 741 mmHg 69%
16:00 +24°C° 0.8 mm 3 mps 741 mmHg 75%
17:00 +22°C° 0.8 mm 3 mps 741 mmHg 80%
18:00 +20°C° 0 mm 2 mps 741 mmHg 81%
19:00 +19°C° 0 mm 2 mps 741 mmHg 82%
20:00 +17°C° 0 mm 2 mps 741 mmHg 83%
21:00 +16°C° 0 mm 2 mps 742 mmHg 86%
22:00 +15°C° 0 mm 2 mps 742 mmHg 89%
23:00 +14°C° 0 mm 2 mps 742 mmHg 92%

Day after tomorrow, 11 August, Tuesday

Time Temperature Precipitation Wind Pressure Humidity
00:00 +13°C° 0 mm 2 mps 742 mmHg 94%
01:00 +12°C° 0 mm 2 mps 742 mmHg 96%
02:00 +10°C° 0 mm 2 mps 743 mmHg 98%
03:00 +10°C° 0 mm 2 mps 743 mmHg 97%
04:00 +10°C° 0 mm 2 mps 743 mmHg 97%
05:00 +9°C° 0 mm 2 mps 743 mmHg 97%
06:00 +10°C° 0 mm 3 mps 743 mmHg 92%
07:00 +11°C° 0 mm 3 mps 743 mmHg 86%
08:00 +12°C° 0 mm 4 mps 743 mmHg 80%
09:00 +13°C° 0 mm 4 mps 743 mmHg 77%
10:00 +13°C° 0 mm 4 mps 743 mmHg 74%
11:00 +13°C° 0 mm 4 mps 743 mmHg 70%
12:00 +14°C° 0 mm 4 mps 744 mmHg 69%
13:00 +14°C° 0 mm 4 mps 744 mmHg 68%
14:00 +14°C° 0 mm 4 mps 744 mmHg 67%
15:00 +14°C° 0 mm 4 mps 744 mmHg 69%
16:00 +14°C° 0 mm 4 mps 744 mmHg 71%
17:00 +14°C° 0 mm 4 mps 744 mmHg 74%
18:00 +13°C° 0 mm 4 mps 744 mmHg 77%
19:00 +13°C° 0 mm 4 mps 744 mmHg 80%
20:00 +12°C° 0 mm 3 mps 744 mmHg 83%
21:00 +12°C° 0 mm 3 mps 744 mmHg 83%
22:00 +12°C° 0 mm 3 mps 744 mmHg 82%
23:00 +11°C° 0 mm 3 mps 744 mmHg 82%

12 August, Wednesday

Time Temperature Precipitation Wind Pressure Humidity
00:00 +10°C° 0 mm 3 mps 744 mmHg 87%
01:00 +9°C° 0 mm 3 mps 744 mmHg 91%
02:00 +8°C° 0 mm 3 mps 744 mmHg 95%
03:00 +8°C° 0 mm 2 mps 744 mmHg 96%
04:00 +8°C° 0 mm 2 mps 744 mmHg 97%
05:00 +7°C° 0 mm 2 mps 744 mmHg 97%
06:00 +9°C° 0 mm 2 mps 744 mmHg 90%
07:00 +11°C° 0 mm 3 mps 744 mmHg 83%
08:00 +13°C° 0 mm 3 mps 744 mmHg 75%
09:00 +14°C° 0 mm 3 mps 744 mmHg 71%
10:00 +16°C° 0 mm 3 mps 744 mmHg 66%
11:00 +17°C° 0 mm 3 mps 745 mmHg 61%
12:00 +17°C° 0 mm 3 mps 744 mmHg 59%
13:00 +17°C° 0 mm 3 mps 744 mmHg 58%
14:00 +17°C° 0 mm 3 mps 744 mmHg 57%
15:00 +17°C° 0 mm 3 mps 744 mmHg 58%
16:00 +16°C° 0 mm 3 mps 744 mmHg 59%
17:00 +16°C° 0 mm 3 mps 744 mmHg 61%
18:00 +14°C° 0 mm 2 mps 744 mmHg 67%
19:00 +13°C° 0 mm 2 mps 744 mmHg 74%
20:00 +12°C° 0 mm 1 mps 744 mmHg 80%
21:00 +11°C° 0 mm 1 mps 744 mmHg 81%
22:00 +11°C° 0 mm 1 mps 744 mmHg 82%
23:00 +10°C° 0 mm 1 mps 744 mmHg 84%

13 August, Thursday

Time Temperature Precipitation Wind Pressure Humidity
00:00 +10°C° 0 mm 1 mps 744 mmHg 86%
01:00 +9°C° 0 mm 1 mps 744 mmHg 89%
02:00 +9°C° 0 mm 1 mps 744 mmHg 92%
03:00 +8°C° 0 mm 1 mps 743 mmHg 93%
04:00 +8°C° 0 mm 1 mps 743 mmHg 94%
05:00 +8°C° 0 mm 1 mps 743 mmHg 94%
06:00 +10°C° 0 mm 1 mps 743 mmHg 84%
07:00 +12°C° 0 mm 1 mps 743 mmHg 74%
08:00 +14°C° 0 mm 1 mps 743 mmHg 64%
09:00 +16°C° 0 mm 2 mps 743 mmHg 59%
10:00 +17°C° 0 mm 2 mps 743 mmHg 54%
11:00 +18°C° 0 mm 2 mps 742 mmHg 48%
12:00 +18°C° 0 mm 2 mps 742 mmHg 49%
13:00 +18°C° 0 mm 2 mps 742 mmHg 50%
14:00 +18°C° 0 mm 2 mps 741 mmHg 50%
15:00 +18°C° 0 mm 2 mps 741 mmHg 54%
16:00 +18°C° 0 mm 2 mps 741 mmHg 58%
17:00 +18°C° 0 mm 2 mps 741 mmHg 61%
18:00 +16°C° 0.1 mm 2 mps 741 mmHg 72%
19:00 +14°C° 0.1 mm 1 mps 740 mmHg 83%
20:00 +13°C° 0.1 mm 1 mps 740 mmHg 94%
21:00 +12°C° 0.2 mm 1 mps 740 mmHg 95%
22:00 +12°C° 0.2 mm 1 mps 740 mmHg 96%
23:00 +11°C° 0.2 mm 0 mps 740 mmHg 97%

14 August, Friday

Time Temperature Precipitation Wind Pressure Humidity
00:00 +11°C° 0.2 mm 0 mps 740 mmHg 97%
01:00 +11°C° 0.2 mm 0 mps 740 mmHg 98%
02:00 +11°C° 0.2 mm 0 mps 740 mmHg 98%
03:00 +11°C° 0 mm 0 mps 740 mmHg 98%
04:00 +12°C° 0 mm 1 mps 740 mmHg 98%
05:00 +12°C° 0 mm 1 mps 740 mmHg 98%
06:00 +12°C° 0 mm 1 mps 740 mmHg 94%
07:00 +13°C° 0 mm 2 mps 740 mmHg 91%
08:00 +14°C° 0 mm 2 mps 740 mmHg 88%
09:00 +15°C° 0 mm 2 mps 740 mmHg 76%
10:00 +17°C° 0 mm 2 mps 740 mmHg 64%
11:00 +18°C° 0 mm 2 mps 740 mmHg 52%
12:00 +18°C° 0 mm 3 mps 740 mmHg 51%
13:00 +18°C° 0 mm 3 mps 740 mmHg 50%
14:00 +18°C° 0 mm 3 mps 741 mmHg 49%
15:00 +18°C° 0 mm 3 mps 741 mmHg 50%
16:00 +17°C° 0 mm 3 mps 741 mmHg 52%
17:00 +17°C° 0 mm 2 mps 741 mmHg 53%
18:00 +15°C° 0 mm 2 mps 741 mmHg 63%
19:00 +13°C° 0 mm 2 mps 741 mmHg 72%
20:00 +11°C° 0 mm 1 mps 741 mmHg 81%
21:00 +10°C° 0 mm 1 mps 741 mmHg 83%
22:00 +9°C° 0 mm 0 mps 741 mmHg 85%
23:00 +8°C° 0 mm 0 mps 742 mmHg 86%
Show more